Location: Geography Hall
(41.1195°N, 80.5706°W)
Time: 23:21:10
(UTC+00:00)

GPS 2-04 Rocket1 - Pass Details

Date: 29 October 2020
Orbit: 417 x 546 km, 35.6° (Epoch: 03 December)

Event Time Altitude Azimuth Distance (km) Brightness Sun altitude
Rises 23:32:32 0° 238° (WSW) 2,607 7.5 -14.0°
Reaches altitude 10° 23:34:55 10° 227° (SW) 1,744 6.2 -14.5°
Maximum altitude 23:38:25 29° 166° (SSE) 990 4.0 -15.1°
Enters shadow 23:40:10 21° 125° (SE) 1,232 4.2 -15.4°
